Arnott, WI

3:33 AM CDT on July 06, 2015 (GMT -0500)
APRSWXNET | | Change Station
CLOSE
Current Station
Personal Weather Station
Location: Stevens Point, WI
Elevation: 1082 ft
Nearby Weather Stations

Elev 1082 ft 44.50 °N, 89.56 °W | Updated 20 minutes ago

Clear
Clear
69 °F
Feels Like 69 °F
N
0
Wind Variable Wind from SE
Gusts 3.0 mph

Today
High -- | Low -- °F
--% Chance of Precip.
Yesterday
High -- | Low -- °F
Precip. -- in
5:20 AM 8:45 PM
Waning Gibbous, 77% visible
Pressure 29.90 in
Visibility 10.0 miles
Clouds Clear
Dew Point 60 °F
Humidity 74%
Rainfall in
Snow Depth Not available.
UV 0 out of 12
Pollen 4.90 out of 12
Air Quality Not available.
Flu Activity Not available.
METAR KSTE 060815Z AUTO 18007KT 10SM CLR 20/17 A2990 RMK AO2 T01950170

More Conditions Fewer Conditions

Pressure 29.90 in
Visibility 10.0 miles
Clouds Clear
Dew Point 60 °F
Humidity 74%
Rainfall in
Snow Depth Not available.
UV 0 out of 12
Pollen 4.90 out of 12
Air Quality Not available.
Flu Activity Not available.
METAR KSTE 060815Z AUTO 18007KT 10SM CLR 20/17 A2990 RMK AO2 T01950170

More Conditions Fewer Conditions

10-Day Weather Forecast

×

Almanac

Astronomy

Jul. 06, 2015 Rise Set
Actual Time
Civil Twilight
Nautical Twilight
Astronomical Twilight
Moon
Length of Visible Light
Length of Day
Tomorrow will be .
, % of the Moon is Illuminated

Today's Extremes

State Highs State Lows

Community

WunderPhotos

Upload Photos

1,835,510 photos uploaded!

WunderBlogs® & News

Nearby

Air Quality

  Air Quality AQ Index Pollutant
Not available.

Snow Depth

Station Depth Elevation

Earthquake Activity

City Distance Mag. Time & Date
Minimum magnitude displayed is 2.5.

Coastal Water Temperatures

Place Temperature

Stations

Nearby Weather Stations

Station Location Temp. Windchill Dew Point Humidity Wind Precip. Elev Updated Type